Regional Weather Roundup
Issued by NWS Sioux Falls, SD

Home | Current Version | Previous Version | Graphics & Text | Print | Product List | Glossary On
Versions: 1 2 3 4 5 6 7 8 9 10 11 12 13 14 15 16 17 18 19 20 21 22 23 24 25 26 27 28 29 30 31 32 33 34 35 36 37 38 39 40 41 42 43 44 45 46 47 48 49 50
000
ASUS43 KFSD 170002
RWRFSD

WEATHER ROUNDUP FOR SE SOUTH DAKOTA/SW MINNESOTA/NW IOWA
NATIONAL WEATHER SERVICE SIOUX FALLS SD
700 PM CDT WED APR 16 2014

NOTE: "FAIR" INDICATES FEW OR NO CLOUDS BELOW 12,000 FEET WITH NO
SIGNIFICANT WEATHER AND OR OBSTRUCTIONS TO VISIBILITY.


SDZ038>040-050-052>070-170100-
SOUTHEAST SOUTH DAKOTA

CITY           SKY/WX    TMP DP  RH WIND       PRES   REMARKS
CHAMBERLAIN      N/A     33  26  75 NE16G24   30.11R WCI  23
6HR MIN TEMP:  32; 6HR MAX TEMP:  34;

HURON          CLOUDY    33  26  75 N18       30.08R WCI  22
6HR MIN TEMP:  31; 6HR MAX TEMP:  33; 6HR PCP: TRACE;

MITCHELL       CLOUDY    33  26  75 N21G31    30.07R WCI  21
6HR MIN TEMP:  33; 6HR MAX TEMP:  36;

SIOUX FALLS    CLOUDY    30  27  88 N26G35    29.94R WCI  16
6HR MIN TEMP:  30; 6HR MAX TEMP:  48; 6HR PCP:  0.17;

WINNER         CLOUDY    34  25  69 N21       30.09R WCI  22
YANKTON        CLOUDY    36  28  75 NW28G39   29.98R
$$

MNZ071-072-080-081-089-090-097-098-170100-
SOUTHWEST MINNESOTA

CITY           SKY/WX    TMP DP  RH WIND       PRES   REMARKS
FAIRMONT       CLOUDY    37  34  87 N22       29.81R
JACKSON        LGT RAIN  36  34  93 N15G26    29.81R
LUVERNE        CLOUDY    32  28  86 N18G26    29.90R WCI  20
MARSHALL       CLOUDY    30  25  80 N21G26    29.95R WCI  17
6HR MIN TEMP:  28; 6HR MAX TEMP:  34; 6HR PCP:  0.05;

MONTEVIDEO     CLOUDY    30  28  93 NE20G25   30.00R WCI  18
PIPESTONE      CLOUDY    28  27  93 N21G30    29.90R WCI  15
REDWOOD FALLS  SNOW      30  28  92 NE10G23   29.91R VSB 1/2 WCI  21
TRACY          LGT SNOW  30  29  95 N18G24    29.92R VSB 1   WCI  18
WINDOM         SNOW      34  32  93 N17       29.83R VSB 1/2 WCI  23
WORTHINGTON    CLOUDY    30  25  80 N22       29.86R VSB 1   WCI  17
$$

IAZ001>003-012>014-020>022-031-032-NEZ013-014-SDZ071-170100-
NORTHWEST IOWA

CITY           SKY/WX    TMP DP  RH WIND       PRES   REMARKS
CHEROKEE       LGT RAIN  42  39  91 N16G25    29.80R
DENISON        CLOUDY    43  37  81 NW20G25   29.79R
ESTHERVILLE    LGT RAIN  39  38  96 N18       29.78R FOG
SHELDON        MIX PCPN  34  32  93 N23G32    29.83R WCI  22
SIOUX CITY     FLURRIES  37  33  85 NW29G41   29.86R
6HR MIN TEMP:  37; 6HR MAX TEMP:  61; 6HR PCP: TRACE;

SPENCER        LGT RAIN  40  36  86 N20       29.79R FOG
6HR MIN TEMP:  40; 6HR MAX TEMP:  60; 6HR PCP:  0.04;

STORM LAKE     LGT RAIN  45  41  87 NW14      29.75R
$$

ABBREVIATIONS USED IN REMARKS
   TC - TEMPERATURE IN CELSIUS
  WCI - WIND CHILL INDEX
   HX - HEAT INDEX
  VSB - VISIBILITY




USA.gov is the U.S. government's official web portal to all federal, state and local government web resources and services.